Location: Unspecified
(35.7250°N, 0.0000°E)
Time: 01:40:33
(UTC+00:00)

Tiros 1 - Visible Passes

Search period start: 25 June 2019 00:00
Search period end: 05 July 2019 00:00
Orbit: 631 x 664 km, 48.4° (Epoch: 24 June)

Date Brightness Start Highest point End Pass type
(mag) Time Alt. Az. Time Alt. Az. Time Alt. Az.
25 Jun 9.9 00:44:07 10° NW 00:47:13 17° N 00:50:18 10° NE visible
25 Jun 9.6 02:27:03 10° NW 02:30:43 22° NNE 02:34:22 10° ENE visible
25 Jun 7.4 04:08:52 10° NW 04:13:30 73° NE 04:18:06 10° ESE visible
25 Jun 8.3 20:02:09 10° S 20:05:44 21° SE 20:09:18 10° E visible
25 Jun 7.5 21:42:54 10° WSW 21:47:36 66° NNW 21:52:17 10° NE visible
25 Jun 9.5 23:26:50 10° WNW 23:30:27 22° NNW 23:34:04 10° NE visible
26 Jun 9.9 01:10:51 10° NW 01:13:58 17° N 01:17:05 10° NE visible
26 Jun 8.8 02:52:58 10° NW 02:57:14 34° NNE 03:01:28 10° E visible
26 Jun 7.3 20:26:57 10° SSW 20:31:34 51° SE 20:36:08 10° ENE visible
26 Jun 8.8 22:09:34 10° W 22:13:54 34° NNW 22:18:11 10° NE visible
26 Jun 9.9 23:54:02 10° NW 23:57:10 17° N 00:00:17 10° NE visible
27 Jun 9.6 01:37:04 10° NW 01:40:41 22° NNE 01:44:16 10° ENE visible
27 Jun 7.5 03:18:53 10° NW 03:23:31 67° NE 03:28:06 10° ESE visible
27 Jun 7.4 20:52:52 10° WSW 20:57:36 71° NW 21:02:18 10° NE visible
27 Jun 9.5 22:36:42 10° WNW 22:40:25 22° NNW 22:44:07 10° NE visible
28 Jun 9.9 00:20:49 10° NW 00:23:55 17° N 00:27:01 10° NE visible
28 Jun 8.8 02:02:59 10° NW 02:07:13 33° NNE 02:11:23 10° E visible
28 Jun 7.2 03:45:03 10° WNW 03:49:33 54° SW 03:54:03 10° SE visible
28 Jun 8.7 21:19:29 10° W 21:23:52 36° NNW 21:28:14 10° NE visible
28 Jun 9.9 23:03:54 10° NW 23:07:06 18° N 23:10:17 10° NE visible
29 Jun 9.6 00:47:04 10° NW 00:50:38 21° NNE 00:54:11 10° ENE visible
29 Jun 7.5 02:28:54 10° NW 02:33:32 62° NNE 02:38:06 10° ESE visible
29 Jun 8.2 04:11:50 10° W 04:15:23 22° SW 04:18:56 10° S visible
29 Jun 7.4 20:02:50 10° WSW 20:07:36 77° NW 20:12:20 10° NE visible
29 Jun 9.5 21:46:34 10° WNW 21:50:22 23° NNW 21:54:09 10° NE visible
29 Jun 9.9 23:30:45 10° NW 23:33:51 17° N 23:36:57 10° NE visible
30 Jun 8.9 01:13:01 10° NW 01:17:11 31° NNE 01:21:19 10° E visible
30 Jun 7.0 02:55:02 10° WNW 02:59:36 59° SW 03:04:08 10° SE visible
30 Jun 8.7 20:29:23 10° W 20:33:51 39° NNW 20:38:17 10° NE visible
30 Jun 9.9 22:13:47 10° NW 22:17:02 18° N 22:20:17 10° NE visible
30 Jun 9.6 23:57:04 10° NW 00:00:35 20° NNE 00:04:04 10° ENE visible
01 Jul 7.6 01:38:55 10° NW 01:43:32 57° NNE 01:48:05 10° ESE visible
01 Jul 8.1 03:21:42 10° WNW 03:25:26 24° SW 03:29:09 10° S visible
01 Jul 9.5 20:56:27 10° WNW 21:00:19 24° NNW 21:04:11 10° NE visible
01 Jul 9.9 22:40:42 10° NW 22:43:48 17° N 22:46:53 10° NE visible
02 Jul 8.9 00:23:02 10° NW 00:27:10 30° NNE 00:28:39 25° NE visible
02 Jul 9.1 02:05:01 10° WNW 02:06:09 17° WNW 02:06:09 17° WNW visible
02 Jul 8.6 19:39:18 10° W 19:43:50 41° NNW 19:48:19 10° NE visible
02 Jul 9.8 21:23:40 10° NW 21:26:59 18° N 21:30:17 10° NE visible
02 Jul 9.6 23:07:03 10° NW 23:10:32 20° NNE 23:13:59 10° ENE visible
03 Jul 8.6 00:48:56 10° NW 00:51:38 32° NNW 00:51:38 32° NNW visible
03 Jul 9.5 20:06:19 10° WNW 20:10:16 25° NNW 20:14:13 10° NE visible
03 Jul 9.8 21:50:37 10° NW 21:53:44 17° N 21:56:50 10° NE visible
03 Jul 8.9 23:33:03 10° NW 23:37:08 28° NNE 23:37:44 27° NE visible
04 Jul 9.7 01:15:00 10° WNW 01:15:19 12° WNW 01:15:19 12° WNW visible
04 Jul 9.8 20:33:32 10° NW 20:36:55 19° N 20:40:17 10° NE visible
04 Jul 9.5 22:17:02 10° NW 22:20:29 20° NNE 22:23:54 10° ENE visible
